Change the Weather History Date:

Saturday, April 20, 2013

  Actual Average (KTYS) Record (KTYS)
Temperature  
Mean Temperature 46 °F 60 °F  
Max Temperature 59 °F 72 °F 87 °F (2002)
Min Temperature 32 °F 49 °F 25 °F (1983)
Degree Days  
Heating Degree Days 20 6  
Month to date heating degree days 170  
Since 1 July heating degree days 3527  
Cooling Degree Days 0 1  
Month to date cooling degree days 18  
Year to date cooling degree days 23  
Moisture  
Dew Point 30 °F    
Average Humidity 57    
Maximum Humidity 93    
Minimum Humidity 31    
Precipitation  
Precipitation 0.00 in 0.13 in 1.99 in (1871)
Month to date precipitation 2.63  
Year to date precipitation 15.55  
Snow  
Snow 0.00 in 0.00 in - ()
Month to date snowfall 0.5  
Since 1 July snowfall 6.5  
Snow Depth -    
Sea Level Pressure  
Sea Level Pressure 30.17 in    
Wind  
Wind Speed 5 mph (NE)    
Max Wind Speed 14 mph    
Max Gust Speed 21 mph    
Visibility 10 miles    
Events      
T = Trace of Precipitation, MM = Missing Value Source: NWS Daily Summary

Daily Weather History Graph

Daily Weather History Graph

Search for Another Location

Airport or City:

Trip Planner

Search our weather history database for the weather conditions in past years. The results will help you decide how hot, cold, wet, or windy it might be!

Date:

Astronomy

Apr. 20, 2013 Rise Set
Actual Time 6:56 AM EDT 8:12 PM EDT
Civil Twilight 6:30 AM EDT 8:38 PM EDT
Nautical Twilight 5:58 AM EDT 9:10 PM EDT
Astronomical Twilight 5:25 AM EDT 9:43 PM EDT
Moon 3:06 PM EDT (4/20) 3:33 AM EDT (4/20)
Length of Visible Light 14h 08m
Length of Day
13h 15m
Waxing Gibbous, 71% of the Moon is Illuminated
Apr 20
Waxing Gibbous
Apr 25
Full
May 2
Last Quarter
May 9
New
May 18
First Quarter

Hourly Weather History & Observations

Time (EDT) Temp. Windchill Dew Point Humidity Pressure Visibility Wind Dir Wind Speed Gust Speed Precip Events Conditions
12:15 AM 36.5 °F - 34.7 °F 93% 30.06 in 10.0 mi Calm Calm - N/A   Scattered Clouds
12:35 AM 40.8 °F 36.9 °F 30.7 °F 67% 30.06 in 10.0 mi North 5.8 mph - N/A   Clear
12:55 AM 40.1 °F 38.0 °F 30.7 °F 69% 30.07 in 10.0 mi North 3.5 mph - N/A   Clear
1:15 AM 41.5 °F 39.6 °F 29.8 °F 63% 30.08 in 10.0 mi North 3.5 mph - N/A   Clear
1:35 AM 39.2 °F 35.0 °F 31.1 °F 73% 30.07 in 10.0 mi East 5.8 mph - N/A   Scattered Clouds
1:55 AM 39.6 °F - 31.5 °F 73% 30.08 in 10.0 mi Calm Calm - N/A   Scattered Clouds
2:35 AM 37.9 °F - 32.4 °F 80% 30.08 in 10.0 mi Calm Calm - N/A   Mostly Cloudy
2:55 AM 39.2 °F 35.9 °F 29.8 °F 69% 30.08 in 10.0 mi North 4.6 mph - N/A   Scattered Clouds
3:15 AM 36.9 °F 32.2 °F 30.7 °F 79% 30.09 in 10.0 mi ENE 5.8 mph - N/A   Clear
3:35 AM 38.7 °F 33.6 °F 27.9 °F 65% 30.09 in 10.0 mi East 6.9 mph 18.4 mph N/A   Clear
3:55 AM 37.4 °F 34.9 °F 29.1 °F 72% 30.10 in 10.0 mi NNE 3.5 mph - N/A   Clear
4:15 AM 37.9 °F 33.5 °F 27.9 °F 67% 30.10 in 10.0 mi ENE 5.8 mph - N/A   Clear
4:35 AM 37.9 °F 33.5 °F 27.7 °F 67% 30.11 in 10.0 mi East 5.8 mph - N/A   Clear
4:55 AM 37.0 °F 31.6 °F 27.9 °F 69% 30.11 in 10.0 mi East 6.9 mph - N/A   Clear
5:15 AM 36.1 °F 32.3 °F 28.9 °F 75% 30.11 in 10.0 mi East 4.6 mph - N/A   Clear
5:35 AM 35.2 °F 31.2 °F 28.4 °F 76% 30.12 in 10.0 mi ENE 4.6 mph - N/A   Clear
5:55 AM 36.0 °F 32.1 °F 28.4 °F 74% 30.12 in 10.0 mi ENE 4.6 mph - N/A   Clear
6:15 AM 32.2 °F 28.9 °F 29.3 °F 89% 30.12 in 10.0 mi NE 3.5 mph - N/A   Clear
6:35 AM 32.2 °F - 29.1 °F 88% 30.13 in 10.0 mi Calm Calm - N/A   Clear
6:55 AM 32.4 °F 29.1 °F 28.9 °F 87% 30.13 in 10.0 mi ENE 3.5 mph - N/A   Clear
7:15 AM 32.4 °F 26.9 °F 29.1 °F 88% 30.15 in 10.0 mi NNE 5.8 mph - N/A   Clear
7:35 AM 32.9 °F - 30.4 °F 90% 30.15 in 10.0 mi Calm Calm - N/A   Clear
7:55 AM 35.4 °F 31.5 °F 30.9 °F 84% 30.16 in 10.0 mi ENE 4.6 mph - N/A   Clear
8:15 AM 38.7 °F 35.2 °F 30.7 °F 73% 30.17 in 10.0 mi East 4.6 mph - N/A   Clear
8:35 AM 40.5 °F 35.1 °F 30.0 °F 66% 30.18 in 10.0 mi East 8.1 mph - N/A   Clear
8:55 AM 42.3 °F 37.3 °F 27.7 °F 56% 30.18 in 10.0 mi East 8.1 mph - N/A   Clear
9:15 AM 44.1 °F 39.5 °F 29.7 °F 57% 30.18 in 10.0 mi ENE 8.1 mph - N/A   Clear
9:35 AM 45.3 °F 41.6 °F 28.2 °F 51% 30.19 in 10.0 mi NE 6.9 mph 16.1 mph N/A   Clear
9:55 AM 46.0 °F 41.0 °F 28.2 °F 50% 30.20 in 10.0 mi ENE 10.4 mph 20.7 mph N/A   Clear
10:15 AM 46.8 °F - 27.0 °F 46% 30.20 in 10.0 mi North 10.4 mph 16.1 mph N/A   Clear
10:35 AM 47.5 °F - 26.8 °F 45% 30.20 in 10.0 mi North 6.9 mph - N/A   Clear
10:55 AM 48.4 °F - 28.0 °F 45% 30.20 in 10.0 mi NNE 6.9 mph - N/A   Clear
11:15 AM 48.7 °F - 27.3 °F 43% 30.21 in 10.0 mi North 6.9 mph 17.3 mph N/A   Clear
11:35 AM 49.6 °F - 28.4 °F 44% 30.21 in 10.0 mi North 11.5 mph 18.4 mph N/A   Clear
11:55 AM 50.4 °F - 27.0 °F 40% 30.20 in 10.0 mi NNE 10.4 mph 17.3 mph N/A   Clear
12:15 PM 51.1 °F - 27.1 °F 40% 30.20 in 10.0 mi NNE 4.6 mph 16.1 mph N/A   Clear
12:55 PM 53.2 °F - 30.4 °F 42% 30.18 in 10.0 mi ENE 11.5 mph 17.3 mph N/A   Clear
1:15 PM 54.3 °F - 29.1 °F 38% 30.18 in 10.0 mi North 11.5 mph 17.3 mph N/A   Clear
1:35 PM 54.9 °F - 29.3 °F 38% 30.17 in 10.0 mi ENE 9.2 mph 17.3 mph N/A   Clear
1:55 PM 56.3 °F - 30.4 °F 37% 30.17 in 10.0 mi NE 10.4 mph 18.4 mph N/A   Clear
2:15 PM 56.7 °F - 29.7 °F 36% 30.17 in 10.0 mi NNE 11.5 mph 20.7 mph N/A   Clear
2:35 PM 56.5 °F - 28.4 °F 34% 30.16 in 10.0 mi NNE 6.9 mph 17.3 mph N/A   Clear
2:55 PM 57.6 °F - 31.1 °F 37% 30.17 in 10.0 mi ENE 10.4 mph - N/A   Clear
3:15 PM 57.9 °F - 30.9 °F 36% 30.16 in 10.0 mi NNE 12.7 mph 17.3 mph N/A   Clear
3:35 PM 58.1 °F - 30.4 °F 35% 30.16 in 10.0 mi NNE 9.2 mph - N/A   Clear
3:55 PM 58.3 °F - 29.7 °F 34% 30.16 in 10.0 mi North 8.1 mph - N/A   Clear
4:15 PM 58.3 °F - 28.9 °F 33% 30.15 in 10.0 mi NE 12.7 mph 17.3 mph N/A   Clear
4:35 PM 58.6 °F - 30.0 °F 34% 30.16 in 10.0 mi North 11.5 mph 18.4 mph N/A   Clear
4:55 PM 59.0 °F - 30.4 °F 34% 30.16 in 10.0 mi North 11.5 mph 16.1 mph N/A   Clear
5:15 PM 57.7 °F - 27.5 °F 31% 30.16 in 10.0 mi North 8.1 mph 20.7 mph N/A   Clear
5:35 PM 57.6 °F - 28.9 °F 34% 30.17 in 10.0 mi NNE 6.9 mph 17.3 mph N/A   Clear
5:55 PM 57.2 °F - 28.8 °F 34% 30.17 in 10.0 mi NE 13.8 mph 17.3 mph N/A   Clear
6:15 PM 56.5 °F - 27.7 °F 33% 30.18 in 10.0 mi NNE 8.1 mph 18.4 mph N/A   Clear
6:35 PM 55.8 °F - 26.8 °F 33% 30.18 in 10.0 mi NE 13.8 mph 19.6 mph N/A   Clear
6:55 PM 55.4 °F - 27.3 °F 34% 30.18 in 10.0 mi North 11.5 mph - N/A   Clear
7:15 PM 54.5 °F - 27.7 °F 36% 30.18 in 10.0 mi NNE 11.5 mph 18.4 mph N/A   Clear
7:35 PM 53.6 °F - 28.0 °F 37% 30.18 in 10.0 mi NNE 6.9 mph - N/A   Clear
7:55 PM 52.9 °F - 27.3 °F 37% 30.19 in 10.0 mi East 3.5 mph - N/A   Clear
8:15 PM 50.5 °F - 29.5 °F 44% 30.20 in 10.0 mi ENE 3.5 mph - N/A   Clear
8:35 PM 47.3 °F - 32.0 °F 55% 30.21 in 10.0 mi Calm Calm - N/A   Clear
8:55 PM 45.5 °F 42.5 °F 32.0 °F 59% 30.22 in 10.0 mi ESE 5.8 mph - N/A   Clear
9:15 PM 44.4 °F - 31.8 °F 61% 30.23 in 10.0 mi Calm Calm - N/A   Clear
9:35 PM 41.5 °F - 33.6 °F 73% 30.24 in 10.0 mi Calm Calm - N/A   Clear
9:55 PM 42.3 °F - 32.7 °F 69% 30.25 in 10.0 mi Calm Calm - N/A   Clear
10:15 PM 41.2 °F - 32.5 °F 71% 30.25 in 10.0 mi Calm Calm - N/A   Clear
10:35 PM 41.0 °F - 32.9 °F 73% 30.26 in 10.0 mi Calm Calm - N/A   Clear
10:55 PM 41.5 °F - 32.7 °F 71% 30.26 in 10.0 mi Calm Calm - N/A   Clear
11:15 PM 39.4 °F - 33.3 °F 79% 30.27 in 10.0 mi Calm Calm - N/A   Clear
11:35 PM 40.1 °F - 32.9 °F 75% 30.27 in 10.0 mi Calm Calm - N/A   Clear
11:55 PM 38.8 °F - 32.4 °F 78% 30.27 in 10.0 mi Calm Calm - N/A   Clear